Location: Moscow
(44.4414°N, 72.7154°W)
Time: 02:05:05
(UTC+00:00)

Explorer 11/Cluster Stage 4 - Visible Passes

Search period start: 15 December 2025 00:00
Search period end: 25 December 2025 00:00
Orbit: 463 x 1181 km, 28.8° (Epoch: 14 December)

Date Brightness Start Highest point End Pass type
(mag) Time Alt. Az. Time Alt. Az. Time Alt. Az.
15 Dec 8.9 00:29:32 10° SW 00:33:35 20° S 00:33:35 20° S visible
15 Dec 9.2 22:19:12 10° SSW 22:23:38 16° SSE 22:27:54 10° SE visible
16 Dec 8.7 00:05:23 10° SW 00:10:44 21° S 00:11:20 21° S visible
16 Dec 9.3 21:55:04 10° SSW 21:59:43 17° SSE 22:04:13 10° SE visible
16 Dec 8.7 23:41:15 10° SW 23:46:50 22° S 23:49:05 19° SSE visible
17 Dec 9.5 01:29:17 10° SW 01:30:22 13° SW 01:30:22 13° SW visible
17 Dec 8.9 23:17:09 10° SW 23:22:54 23° S 23:26:51 15° SE visible
18 Dec 9.2 01:05:08 10° SW 01:08:08 17° SSW 01:08:08 17° SSW visible
18 Dec 9.0 22:53:06 10° SW 22:58:58 23° S 23:04:33 10° SE visible
19 Dec 9.0 00:41:01 10° SW 00:45:56 19° SSW 00:45:56 19° SSW visible
19 Dec 9.1 22:29:05 10° SW 22:34:59 24° S 22:40:45 10° SE visible
20 Dec 9.0 00:16:55 10° WSW 00:22:07 20° SSW 00:23:47 18° S visible
20 Dec 9.1 22:05:06 10° SW 22:11:00 24° S 22:16:52 10° SE visible
20 Dec 9.1 23:52:51 10° WSW 23:58:10 20° SSW 00:01:42 14° SSE visible
21 Dec 9.2 21:41:11 10° SW 21:47:01 24° S 21:52:56 10° SE visible
21 Dec 9.2 23:28:51 10° WSW 23:34:12 20° SSW 23:39:24 10° SSE visible
22 Dec 9.3 23:04:53 10° WSW 23:10:13 20° SSW 23:15:30 10° SSE visible
23 Dec 9.4 22:40:58 10° SW 22:46:13 20° SSW 22:51:31 10° SSE visible
24 Dec 9.5 22:17:07 10° SW 22:22:14 20° SSW 22:27:29 10° SSE visible
